This demonstration page uses our WeatherBlox Daily Observations layout. Learn more.

Left ArrowRight Arrow

53.62937, 11.41316

Hourly Observations for November 6, 2018

Temp ( °F °C ) Dew Point ( °F °C ) Humidity (%) Winds ( mph kmh ) Pressure ( in mb ) Visibility ( mi km ) Precip ( " mm )
6:50 am 06:50 Mostly Clear with Mist and Fog 45 7 45 7 100 100 S 3 6 29.77 1008 2 3 N/A
7:20 am 07:20 Mostly Clear with Mist and Fog 45 7 43 6 93 93 S 3 6 29.77 1008 2 3 N/A
7:50 am 07:50 Partly Cloudy with Mist and Fog 45 7 43 6 93 93 VRB 2 4 29.80 1009 2 3 N/A
8:20 am 08:20 Mostly Cloudy with Fog 43 6 43 6 100 100 VRB 2 4 29.80 1009 0 0 N/A
8:50 am 08:50 Mostly Cloudy with Fog 45 7 43 6 93 93 VRB 2 4 29.80 1009 1 1 N/A
9:20 am 09:20 Mostly Cloudy with Fog 45 7 45 7 100 100 VRB 2 4 29.83 1010 0 1 N/A
9:50 am 09:50 Mostly Cloudy with Mist and Fog 46 8 45 7 93 93 VRB 1 2 29.83 1010 1 2 N/A
10:20 am 10:20 Partly Cloudy with Mist and Fog 48 9 46 8 94 94 VRB 2 4 29.83 1010 2 3 N/A
10:50 am 10:50 Partly Cloudy with Mist and Fog 50 10 48 9 94 94 VRB 2 4 29.83 1010 2 3 N/A
11:20 am 11:20 Mostly Sunny 52 11 48 9 88 88 VRB 1 2 29.83 1010 4 6 N/A
11:50 am 11:50 Mostly Sunny 52 11 48 9 88 88 VRB 2 4 29.83 1010 6 9 N/A
12:20 pm 12:20 Mostly Sunny 54 12 48 9 82 82 VRB 2 4 29.83 1010 7 11 N/A
12:50 pm 12:50 Mostly Sunny 55 13 48 9 77 77 VRB 2 4 29.83 1010 7 11 N/A
1:50 pm 13:50 Mostly Sunny 54 12 50 10 88 88 VRB 2 4 29.83 1010 7 11 N/A
2:20 pm 14:20 Mostly Sunny 55 13 50 10 82 82 VRB 1 2 29.83 1010 7 11 N/A
2:50 pm 14:50 Mostly Sunny 55 13 50 10 82 82 VRB 1 2 29.83 1010 7 11 N/A
3:20 pm 15:20 Mostly Sunny 55 13 50 10 82 82 E 3 6 29.83 1010 7 11 N/A
3:50 pm 15:50 Mostly Sunny 54 12 50 10 88 88 ESE 2 4 29.83 1010 7 11 N/A
4:20 pm 16:20 Mostly Sunny 54 12 50 10 88 88 ESE 2 4 29.83 1010 5 8 N/A
4:50 pm 16:50 Mostly Clear with Mist and Fog 50 10 48 9 94 94 E 5 7 29.83 1010 2 3 N/A
5:20 pm 17:20 Mostly Clear 52 11 48 9 88 88 E 3 6 29.83 1010 4 7 N/A
5:50 pm 17:50 Mostly Clear with Mist and Fog 46 8 45 7 93 93 NNE 3 6 29.83 1010 2 3 N/A
6:20 pm 18:20 Mostly Clear with Patchy Fog 46 8 46 8 100 100 VRB 1 2 29.83 1010 0 1 N/A
6:50 pm 18:50 Mostly Clear with Fog 46 8 45 7 93 93 Calm 29.83 1010 0 1 N/A

Powered by AerisWeather